Location: Klagenfurt
(46.6230°N, 14.2987°E)
Time: 05:40:17
(UTC+01:00)

ISS - Visible Passes

Search period start: 14 December 2025 00:00
Search period end: 24 December 2025 00:00
Orbit: 416 x 420 km, 51.6° (Epoch: 13 December)

Date Brightness Start Highest point End Pass type
(mag) Time Alt. Az. Time Alt. Az. Time Alt. Az.
14 Dec -2.4 06:26:11 10° SW 06:29:22 40° SE 06:32:35 10° ENE visible
15 Dec -1.6 05:38:47 11° SSW 05:41:29 26° SE 05:44:21 10° E visible
16 Dec -1.0 04:53:41 17° SE 04:53:41 17° SE 04:55:51 10° E visible
16 Dec -3.8 06:26:40 10° WSW 06:29:58 88° WNW 06:33:23 10° ENE visible
17 Dec -3.4 05:41:13 47° SSW 05:41:56 61° SSE 05:45:16 10° ENE visible
18 Dec -1.3 04:55:32 23° E 04:55:32 23° E 04:57:04 10° ENE visible
18 Dec -3.4 06:28:29 19° W 06:30:38 49° NNW 06:33:56 10° ENE visible
19 Dec -3.7 05:42:36 64° N 05:42:36 64° N 05:45:48 10° ENE visible
20 Dec -1.1 04:56:34 19° ENE 04:56:34 19° ENE 04:57:37 10° ENE visible
20 Dec -2.9 06:29:30 20° WNW 06:31:16 35° N 06:34:25 10° ENE visible
21 Dec -2.9 05:43:21 39° N 05:43:21 39° N 05:46:10 10° ENE visible
22 Dec -1.0 04:57:07 16° NE 04:57:07 16° NE 04:57:55 10° ENE visible
22 Dec -2.7 06:30:02 20° NW 06:31:50 33° N 06:34:56 10° ENE visible
23 Dec -2.6 05:43:44 33° N 05:43:44 33° N 05:46:32 10° ENE visible
